Time,TemperatureF,DewpointF,PressureIn,WindDirection,WindDirectionDegrees,WindSpeedMPH,WindSpeedGustMPH,Humidity,HourlyPrecipIn,Conditions,Clouds,dailyrainin,SoftwareType,DateUTC
2013-05-18 00:00:00,64.7,60.7,29.99,N/A,-327680,0.0,0.0,87,0.00,,,0.04,Wunderground PWS Mod,2013-05-18 04:00:00,
2013-05-18 00:05:00,64.7,60.7,29.99,N/A,-327680,0.0,0.0,87,0.00,,,0.04,Wunderground PWS Mod,2013-05-18 04:05:00,
2013-05-18 00:10:00,64.7,60.7,29.99,N/A,-327680,0.0,0.0,87,0.00,,,0.04,Wunderground PWS Mod,2013-05-18 04:10:00,
2013-05-18 00:15:00,64.7,60.7,29.99,N/A,-327680,0.0,0.0,87,0.00,,,0.04,Wunderground PWS Mod,2013-05-18 04:15:00,
2013-05-18 00:20:00,64.7,60.7,29.99,N/A,-327680,0.0,0.0,87,0.00,,,0.04,Wunderground PWS Mod,2013-05-18 04:20:00,
2013-05-18 00:25:00,64.7,60.7,29.99,N/A,-327680,0.0,0.0,87,0.00,,,0.04,Wunderground PWS Mod,2013-05-18 04:25:00,
2013-05-18 00:30:00,64.7,60.7,29.99,N/A,-327680,0.0,0.0,87,0.00,,,0.04,Wunderground PWS Mod,2013-05-18 04:30:00,
2013-05-18 00:35:00,64.7,60.7,29.99,N/A,-327680,0.0,0.0,87,0.00,,,0.04,Wunderground PWS Mod,2013-05-18 04:35:00,
2013-05-18 00:40:00,64.7,60.7,29.99,N/A,-327680,0.0,0.0,87,0.00,,,0.04,Wunderground PWS Mod,2013-05-18 04:40:00,
2013-05-18 00:45:00,64.7,61.1,29.99,N/A,-327680,0.0,0.0,88,0.00,,,0.04,Wunderground PWS Mod,2013-05-18 04:45:00,
2013-05-18 00:50:00,64.7,61.1,29.99,N/A,-327680,0.0,0.0,88,0.00,,,0.04,Wunderground PWS Mod,2013-05-18 04:50:00,
2013-05-18 00:55:00,64.7,61.1,29.99,N/A,-327680,0.0,0.0,88,0.00,,,0.04,Wunderground PWS Mod,2013-05-18 04:55:00,
2013-05-18 01:00:00,64.7,61.1,29.99,N/A,-327680,0.0,0.0,88,0.00,,,0.04,Wunderground PWS Mod,2013-05-18 05:00:00,
2013-05-18 01:05:00,64.7,61.1,29.99,N/A,-327680,0.0,0.0,88,0.00,,,0.04,Wunderground PWS Mod,2013-05-18 05:05:00,
2013-05-18 01:10:00,64.7,61.1,29.99,N/A,-327680,0.0,0.0,88,0.00,,,0.04,Wunderground PWS Mod,2013-05-18 05:10:00,
2013-05-18 01:15:00,66.0,62.3,29.99,ENE,70,0.0,5.0,88,0.00,,,0.04,Wunderground PWS Mod,2013-05-18 05:15:00,
2013-05-18 01:20:00,66.0,62.3,29.99,ENE,70,0.0,5.0,88,0.00,,,0.04,Wunderground PWS Mod,2013-05-18 05:20:00,
2013-05-18 01:25:00,66.0,62.3,29.99,ENE,70,0.0,5.0,88,0.00,,,0.04,Wunderground PWS Mod,2013-05-18 05:25:00,
2013-05-18 01:30:00,66.0,62.3,29.99,ENE,70,0.0,5.0,88,0.00,,,0.04,Wunderground PWS Mod,2013-05-18 05:30:00,
2013-05-18 01:35:00,66.0,62.3,29.99,ENE,70,0.0,5.0,88,0.00,,,0.04,Wunderground PWS Mod,2013-05-18 05:35:00,
2013-05-18 01:40:00,66.0,62.3,29.99,ENE,70,0.0,5.0,88,0.00,,,0.04,Wunderground PWS Mod,2013-05-18 05:40:00,
2013-05-18 01:45:00,67.9,62.9,29.99,ENE,70,0.0,3.0,84,0.00,,,0.04,Wunderground PWS Mod,2013-05-18 05:45:00,
2013-05-18 01:50:00,67.9,62.9,29.99,ENE,70,0.0,3.0,84,0.00,,,0.04,Wunderground PWS Mod,2013-05-18 05:50:00,
2013-05-18 01:55:00,67.9,62.9,29.99,ENE,70,0.0,3.0,84,0.00,,,0.04,Wunderground PWS Mod,2013-05-18 05:55:00,
2013-05-18 02:00:00,67.9,62.9,29.99,ENE,70,0.0,3.0,84,0.00,,,0.04,Wunderground PWS Mod,2013-05-18 06:00:00,
2013-05-18 02:05:00,67.9,62.9,29.99,ENE,70,0.0,3.0,84,0.00,,,0.04,Wunderground PWS Mod,2013-05-18 06:05:00,
2013-05-18 02:10:00,67.9,62.9,29.99,ENE,70,0.0,3.0,84,0.00,,,0.04,Wunderground PWS Mod,2013-05-18 06:10:00,
2013-05-18 02:15:00,68.8,63.1,29.99,East,80,1.0,5.0,82,0.00,,,0.04,Wunderground PWS Mod,2013-05-18 06:15:00,
2013-05-18 02:20:00,68.8,63.1,29.99,East,80,1.0,5.0,82,0.00,,,0.04,Wunderground PWS Mod,2013-05-18 06:20:00,
2013-05-18 02:25:00,68.8,63.1,29.99,East,80,1.0,5.0,82,0.00,,,0.04,Wunderground PWS Mod,2013-05-18 06:25:00,
2013-05-18 02:30:00,68.8,63.1,29.99,East,80,1.0,5.0,82,0.00,,,0.04,Wunderground PWS Mod,2013-05-18 06:30:00,
2013-05-18 02:35:00,68.8,63.1,29.99,East,80,1.0,5.0,82,0.00,,,0.04,Wunderground PWS Mod,2013-05-18 06:35:00,
2013-05-18 02:40:00,68.8,63.1,29.99,East,80,1.0,5.0,82,0.00,,,0.04,Wunderground PWS Mod,2013-05-18 06:40:00,
2013-05-18 02:45:00,68.3,63.3,29.99,East,90,0.0,4.0,84,0.00,,,0.04,Wunderground PWS Mod,2013-05-18 06:45:00,
2013-05-18 02:50:00,68.3,63.3,29.99,East,90,0.0,4.0,84,0.00,,,0.04,Wunderground PWS Mod,2013-05-18 06:50:00,
2013-05-18 02:55:00,68.3,63.3,29.99,East,90,0.0,4.0,84,0.00,,,0.04,Wunderground PWS Mod,2013-05-18 06:55:00,
2013-05-18 03:00:00,68.3,63.3,29.99,East,90,0.0,4.0,84,0.00,,,0.04,Wunderground PWS Mod,2013-05-18 07:00:00,
2013-05-18 03:05:00,68.3,63.3,29.99,East,90,0.0,4.0,84,0.00,,,0.04,Wunderground PWS Mod,2013-05-18 07:05:00,
2013-05-18 03:10:00,68.3,63.3,29.99,East,90,0.0,4.0,84,0.00,,,0.04,Wunderground PWS Mod,2013-05-18 07:10:00,
2013-05-18 03:15:00,67.9,62.9,29.99,East,90,0.0,3.0,84,0.00,,,0.04,Wunderground PWS Mod,2013-05-18 07:15:00,
2013-05-18 03:20:00,67.9,62.9,29.99,East,90,0.0,3.0,84,0.00,,,0.04,Wunderground PWS Mod,2013-05-18 07:20:00,
2013-05-18 03:25:00,67.9,62.9,29.99,East,90,0.0,3.0,84,0.00,,,0.04,Wunderground PWS Mod,2013-05-18 07:25:00,
2013-05-18 03:30:00,67.9,62.9,29.99,East,90,0.0,3.0,84,0.00,,,0.04,Wunderground PWS Mod,2013-05-18 07:30:00,
2013-05-18 03:35:00,67.9,62.9,29.99,East,90,0.0,3.0,84,0.00,,,0.04,Wunderground PWS Mod,2013-05-18 07:35:00,
2013-05-18 03:40:00,67.9,62.9,29.99,East,90,0.0,3.0,84,0.00,,,0.04,Wunderground PWS Mod,2013-05-18 07:40:00,
2013-05-18 03:45:00,67.4,62.1,29.99,East,90,0.0,1.0,83,0.00,,,0.04,Wunderground PWS Mod,2013-05-18 07:45:00,
2013-05-18 03:50:00,67.4,62.1,29.99,East,90,0.0,1.0,83,0.00,,,0.04,Wunderground PWS Mod,2013-05-18 07:50:00,
2013-05-18 03:55:00,67.4,62.1,29.99,East,90,0.0,1.0,83,0.00,,,0.04,Wunderground PWS Mod,2013-05-18 07:55:00,
2013-05-18 04:00:00,67.4,62.1,29.99,East,90,0.0,1.0,83,0.00,,,0.04,Wunderground PWS Mod,2013-05-18 08:00:00,
2013-05-18 04:05:00,67.4,62.1,29.99,East,90,0.0,1.0,83,0.00,,,0.04,Wunderground PWS Mod,2013-05-18 08:05:00,
2013-05-18 04:10:00,67.4,62.1,29.99,East,90,0.0,1.0,83,0.00,,,0.04,Wunderground PWS Mod,2013-05-18 08:10:00,
2013-05-18 04:15:00,66.4,61.1,29.99,East,90,0.0,1.0,83,0.00,,,0.04,Wunderground PWS Mod,2013-05-18 08:15:00,
2013-05-18 04:20:00,66.4,61.1,29.99,East,90,0.0,1.0,83,0.00,,,0.04,Wunderground PWS Mod,2013-05-18 08:20:00,
2013-05-18 04:25:00,66.4,61.1,29.99,East,90,0.0,1.0,83,0.00,,,0.04,Wunderground PWS Mod,2013-05-18 08:25:00,
2013-05-18 04:30:00,66.4,61.1,29.99,East,90,0.0,1.0,83,0.00,,,0.04,Wunderground PWS Mod,2013-05-18 08:30:00,
2013-05-18 04:35:00,66.4,61.1,29.99,East,90,0.0,1.0,83,0.00,,,0.04,Wunderground PWS Mod,2013-05-18 08:35:00,
2013-05-18 04:40:00,66.4,61.1,29.99,East,90,0.0,1.0,83,0.00,,,0.04,Wunderground PWS Mod,2013-05-18 08:40:00,
2013-05-18 04:45:00,66.0,60.3,29.99,East,90,0.0,2.0,82,0.00,,,0.04,Wunderground PWS Mod,2013-05-18 08:45:00,
2013-05-18 04:50:00,66.0,60.3,29.99,East,90,0.0,2.0,82,0.00,,,0.04,Wunderground PWS Mod,2013-05-18 08:50:00,
2013-05-18 04:55:00,66.0,60.3,29.99,East,90,0.0,2.0,82,0.00,,,0.04,Wunderground PWS Mod,2013-05-18 08:55:00,
2013-05-18 05:00:00,66.0,60.3,29.99,East,90,0.0,2.0,82,0.00,,,0.04,Wunderground PWS Mod,2013-05-18 09:00:00,
2013-05-18 05:05:00,66.0,60.3,29.99,East,90,0.0,2.0,82,0.00,,,0.04,Wunderground PWS Mod,2013-05-18 09:05:00,
2013-05-18 05:10:00,66.0,60.3,29.99,East,90,0.0,2.0,82,0.00,,,0.04,Wunderground PWS Mod,2013-05-18 09:10:00,
2013-05-18 05:15:00,65.3,60.0,30.00,East,90,0.0,1.0,83,0.00,,,0.04,Wunderground PWS Mod,2013-05-18 09:15:00,
2013-05-18 05:20:00,65.3,60.0,30.00,East,90,0.0,1.0,83,0.00,,,0.04,Wunderground PWS Mod,2013-05-18 09:20:00,
2013-05-18 05:25:00,65.3,60.0,30.00,East,90,0.0,1.0,83,0.00,,,0.04,Wunderground PWS Mod,2013-05-18 09:25:00,
2013-05-18 05:30:00,65.3,60.0,30.00,East,90,0.0,1.0,83,0.00,,,0.04,Wunderground PWS Mod,2013-05-18 09:30:00,
2013-05-18 05:35:00,65.3,60.0,30.00,East,90,0.0,1.0,83,0.00,,,0.04,Wunderground PWS Mod,2013-05-18 09:35:00,
2013-05-18 05:40:00,65.3,60.0,30.00,East,90,0.0,1.0,83,0.00,,,0.04,Wunderground PWS Mod,2013-05-18 09:40:00,
2013-05-18 05:45:00,65.0,60.0,30.01,East,90,0.0,2.0,84,0.00,,,0.04,Wunderground PWS Mod,2013-05-18 09:45:00,
2013-05-18 05:50:00,65.0,60.0,30.01,East,90,0.0,2.0,84,0.00,,,0.04,Wunderground PWS Mod,2013-05-18 09:50:00,
2013-05-18 05:55:00,65.0,60.0,30.01,East,90,0.0,2.0,84,0.00,,,0.04,Wunderground PWS Mod,2013-05-18 09:55:00,
2013-05-18 06:00:00,65.0,60.0,30.01,East,90,0.0,2.0,84,0.00,,,0.04,Wunderground PWS Mod,2013-05-18 10:00:00,
2013-05-18 06:05:00,65.0,60.0,30.01,East,90,0.0,2.0,84,0.00,,,0.04,Wunderground PWS Mod,2013-05-18 10:05:00,
2013-05-18 06:10:00,65.0,60.0,30.01,East,90,0.0,2.0,84,0.00,,,0.04,Wunderground PWS Mod,2013-05-18 10:10:00,
2013-05-18 06:15:00,66.3,60.6,30.03,East,90,0.0,3.0,82,0.00,,,0.04,Wunderground PWS Mod,2013-05-18 10:15:00,
2013-05-18 06:20:00,66.3,60.6,30.03,East,90,0.0,3.0,82,0.00,,,0.04,Wunderground PWS Mod,2013-05-18 10:20:00,
2013-05-18 06:25:00,66.3,60.6,30.03,East,90,0.0,3.0,82,0.00,,,0.04,Wunderground PWS Mod,2013-05-18 10:25:00,
2013-05-18 06:30:00,66.3,60.6,30.03,East,90,0.0,3.0,82,0.00,,,0.04,Wunderground PWS Mod,2013-05-18 10:30:00,
2013-05-18 06:35:00,66.3,60.6,30.03,East,90,0.0,3.0,82,0.00,,,0.04,Wunderground PWS Mod,2013-05-18 10:35:00,
2013-05-18 06:40:00,66.3,60.6,30.03,East,90,0.0,3.0,82,0.00,,,0.04,Wunderground PWS Mod,2013-05-18 10:40:00,
2013-05-18 06:45:00,68.1,60.6,30.03,East,90,1.0,5.0,77,0.00,,,0.04,Wunderground PWS Mod,2013-05-18 10:45:00,
2013-05-18 06:50:00,68.1,60.6,30.03,East,90,1.0,5.0,77,0.00,,,0.04,Wunderground PWS Mod,2013-05-18 10:50:00,
2013-05-18 06:55:00,68.1,60.6,30.03,East,90,1.0,5.0,77,0.00,,,0.04,Wunderground PWS Mod,2013-05-18 10:55:00,
2013-05-18 07:00:00,68.1,60.6,30.03,East,90,1.0,5.0,77,0.00,,,0.04,Wunderground PWS Mod,2013-05-18 11:00:00,
2013-05-18 07:05:00,68.1,60.6,30.03,East,90,1.0,5.0,77,0.00,,,0.04,Wunderground PWS Mod,2013-05-18 11:05:00,
2013-05-18 07:10:00,68.1,60.6,30.03,East,90,1.0,5.0,77,0.00,,,0.04,Wunderground PWS Mod,2013-05-18 11:10:00,
2013-05-18 07:15:00,69.6,61.7,30.04,East,100,2.0,6.0,76,0.00,,,0.04,Wunderground PWS Mod,2013-05-18 11:15:00,
2013-05-18 07:20:00,69.6,61.7,30.04,East,100,2.0,6.0,76,0.00,,,0.04,Wunderground PWS Mod,2013-05-18 11:20:00,
2013-05-18 07:25:00,69.6,61.7,30.04,East,100,2.0,6.0,76,0.00,,,0.04,Wunderground PWS Mod,2013-05-18 11:25:00,
2013-05-18 07:30:00,69.6,61.7,30.04,East,100,2.0,6.0,76,0.00,,,0.04,Wunderground PWS Mod,2013-05-18 11:30:00,
2013-05-18 07:35:00,69.6,61.7,30.04,East,100,2.0,6.0,76,0.00,,,0.04,Wunderground PWS Mod,2013-05-18 11:35:00,
2013-05-18 07:40:00,69.6,61.7,30.04,East,100,2.0,6.0,76,0.00,,,0.04,Wunderground PWS Mod,2013-05-18 11:40:00,
2013-05-18 07:45:00,71.3,62.6,30.04,East,100,3.0,7.0,74,0.00,,,0.04,Wunderground PWS Mod,2013-05-18 11:45:00,
2013-05-18 07:50:00,71.3,62.6,30.04,East,100,3.0,7.0,74,0.00,,,0.04,Wunderground PWS Mod,2013-05-18 11:50:00,
2013-05-18 07:55:00,71.3,62.6,30.04,East,100,3.0,7.0,74,0.00,,,0.04,Wunderground PWS Mod,2013-05-18 11:55:00,
2013-05-18 08:00:00,71.3,62.6,30.04,East,100,3.0,7.0,74,0.00,,,0.04,Wunderground PWS Mod,2013-05-18 12:00:00,
2013-05-18 08:05:00,71.3,62.6,30.04,East,100,3.0,7.0,74,0.00,,,0.04,Wunderground PWS Mod,2013-05-18 12:05:00,
2013-05-18 08:10:00,71.3,62.6,30.04,East,100,3.0,7.0,74,0.00,,,0.04,Wunderground PWS Mod,2013-05-18 12:10:00,
2013-05-18 08:15:00,70.6,63.0,30.05,ESE,110,3.0,10.0,77,0.00,,,0.04,Wunderground PWS Mod,2013-05-18 12:15:00,
2013-05-18 08:20:00,70.6,63.0,30.05,ESE,110,3.0,10.0,77,0.00,,,0.04,Wunderground PWS Mod,2013-05-18 12:20:00,
2013-05-18 08:25:00,70.6,63.0,30.05,ESE,110,3.0,10.0,77,0.00,,,0.04,Wunderground PWS Mod,2013-05-18 12:25:00,
2013-05-18 08:30:00,70.6,63.0,30.05,ESE,110,3.0,10.0,77,0.00,,,0.04,Wunderground PWS Mod,2013-05-18 12:30:00,
2013-05-18 08:35:00,70.6,63.0,30.05,ESE,110,3.0,10.0,77,0.00,,,0.04,Wunderground PWS Mod,2013-05-18 12:35:00,
2013-05-18 08:40:00,70.6,63.0,30.05,ESE,110,3.0,10.0,77,0.00,,,0.04,Wunderground PWS Mod,2013-05-18 12:40:00,
2013-05-18 08:45:00,71.6,63.6,30.06,ESE,110,4.0,12.0,76,0.00,,,0.04,Wunderground PWS Mod,2013-05-18 12:45:00,
2013-05-18 08:50:00,71.6,63.6,30.06,ESE,110,4.0,12.0,76,0.00,,,0.04,Wunderground PWS Mod,2013-05-18 12:50:00,
2013-05-18 08:55:00,71.6,63.6,30.06,ESE,110,4.0,12.0,76,0.00,,,0.04,Wunderground PWS Mod,2013-05-18 12:55:00,
2013-05-18 09:00:00,71.6,63.6,30.06,ESE,110,4.0,12.0,76,0.00,,,0.04,Wunderground PWS Mod,2013-05-18 13:00:00,
2013-05-18 09:05:00,71.6,63.6,30.06,ESE,110,4.0,12.0,76,0.00,,,0.04,Wunderground PWS Mod,2013-05-18 13:05:00,
2013-05-18 09:10:00,71.6,63.6,30.06,ESE,110,4.0,12.0,76,0.00,,,0.04,Wunderground PWS Mod,2013-05-18 13:10:00,
2013-05-18 09:15:00,72.7,64.3,30.05,ESE,120,4.0,14.0,75,0.00,,,0.04,Wunderground PWS Mod,2013-05-18 13:15:00,
2013-05-18 09:20:00,72.7,64.3,30.05,ESE,120,4.0,14.0,75,0.00,,,0.04,Wunderground PWS Mod,2013-05-18 13:20:00,
2013-05-18 09:25:00,72.7,64.3,30.05,ESE,120,4.0,14.0,75,0.00,,,0.04,Wunderground PWS Mod,2013-05-18 13:25:00,
2013-05-18 09:30:00,72.7,64.3,30.05,ESE,120,4.0,14.0,75,0.00,,,0.04,Wunderground PWS Mod,2013-05-18 13:30:00,
2013-05-18 09:35:00,72.7,64.3,30.05,ESE,120,4.0,14.0,75,0.00,,,0.04,Wunderground PWS Mod,2013-05-18 13:35:00,
2013-05-18 09:40:00,72.7,64.3,30.05,ESE,120,4.0,14.0,75,0.00,,,0.04,Wunderground PWS Mod,2013-05-18 13:40:00,
2013-05-18 09:45:00,74.6,63.8,30.05,ESE,120,3.0,12.0,69,0.00,,,0.04,Wunderground PWS Mod,2013-05-18 13:45:00,
2013-05-18 09:50:00,74.6,63.8,30.05,ESE,120,3.0,12.0,69,0.00,,,0.04,Wunderground PWS Mod,2013-05-18 13:50:00,
2013-05-18 09:55:00,74.6,63.8,30.05,ESE,120,3.0,12.0,69,0.00,,,0.04,Wunderground PWS Mod,2013-05-18 13:55:00,
2013-05-18 10:00:00,74.6,63.8,30.05,ESE,120,3.0,12.0,69,0.00,,,0.04,Wunderground PWS Mod,2013-05-18 14:00:00,
2013-05-18 10:05:00,74.6,63.8,30.05,ESE,120,3.0,12.0,69,0.00,,,0.04,Wunderground PWS Mod,2013-05-18 14:05:00,
2013-05-18 10:10:00,74.6,63.8,30.05,ESE,120,3.0,12.0,69,0.00,,,0.04,Wunderground PWS Mod,2013-05-18 14:10:00,
2013-05-18 10:15:00,75.1,63.8,30.06,ESE,120,3.0,12.0,68,0.00,,,0.04,Wunderground PWS Mod,2013-05-18 14:15:00,
2013-05-18 10:20:00,75.1,63.8,30.06,ESE,120,3.0,12.0,68,0.00,,,0.04,Wunderground PWS Mod,2013-05-18 14:20:00,
2013-05-18 10:25:00,75.1,63.8,30.06,ESE,120,3.0,12.0,68,0.00,,,0.04,Wunderground PWS Mod,2013-05-18 14:25:00,
2013-05-18 10:30:00,75.1,63.8,30.06,ESE,120,3.0,12.0,68,0.00,,,0.04,Wunderground PWS Mod,2013-05-18 14:30:00,
2013-05-18 10:35:00,75.1,63.8,30.06,ESE,120,3.0,12.0,68,0.00,,,0.04,Wunderground PWS Mod,2013-05-18 14:35:00,
2013-05-18 10:40:00,75.1,63.8,30.06,ESE,120,3.0,12.0,68,0.00,,,0.04,Wunderground PWS Mod,2013-05-18 14:40:00,
2013-05-18 10:45:00,75.1,63.8,30.06,ESE,120,2.0,10.0,68,0.00,,,0.04,Wunderground PWS Mod,2013-05-18 14:45:00,
2013-05-18 10:50:00,75.1,63.8,30.06,ESE,120,2.0,10.0,68,0.00,,,0.04,Wunderground PWS Mod,2013-05-18 14:50:00,
2013-05-18 10:55:00,75.1,63.8,30.06,ESE,120,2.0,10.0,68,0.00,,,0.04,Wunderground PWS Mod,2013-05-18 14:55:00,
2013-05-18 11:00:00,75.1,63.8,30.06,ESE,120,2.0,10.0,68,0.00,,,0.04,Wunderground PWS Mod,2013-05-18 15:00:00,
2013-05-18 11:05:00,75.1,63.8,30.06,ESE,120,2.0,10.0,68,0.00,,,0.04,Wunderground PWS Mod,2013-05-18 15:05:00,
2013-05-18 11:10:00,75.1,63.8,30.06,ESE,120,2.0,10.0,68,0.00,,,0.04,Wunderground PWS Mod,2013-05-18 15:10:00,
2013-05-18 11:15:00,76.5,64.3,30.05,SE,130,1.0,6.0,66,0.00,,,0.04,Wunderground PWS Mod,2013-05-18 15:15:00,
2013-05-18 11:20:00,76.5,64.3,30.05,SE,130,1.0,6.0,66,0.00,,,0.04,Wunderground PWS Mod,2013-05-18 15:20:00,
2013-05-18 11:25:00,76.5,64.3,30.05,SE,130,1.0,6.0,66,0.00,,,0.04,Wunderground PWS Mod,2013-05-18 15:25:00,
2013-05-18 11:30:00,76.5,64.3,30.05,SE,130,1.0,6.0,66,0.00,,,0.04,Wunderground PWS Mod,2013-05-18 15:30:00,
2013-05-18 11:35:00,76.5,64.3,30.05,SE,130,1.0,6.0,66,0.00,,,0.04,Wunderground PWS Mod,2013-05-18 15:35:00,
2013-05-18 11:40:00,76.5,64.3,30.05,SE,130,1.0,6.0,66,0.00,,,0.04,Wunderground PWS Mod,2013-05-18 15:40:00,
2013-05-18 11:45:00,75.4,63.7,30.05,ESE,120,2.0,8.0,67,0.00,,,0.04,Wunderground PWS Mod,2013-05-18 15:45:00,
2013-05-18 11:50:00,75.4,63.7,30.05,ESE,120,2.0,8.0,67,0.00,,,0.04,Wunderground PWS Mod,2013-05-18 15:50:00,
2013-05-18 11:55:00,75.4,63.7,30.05,ESE,120,2.0,8.0,67,0.00,,,0.04,Wunderground PWS Mod,2013-05-18 15:55:00,
2013-05-18 12:00:00,75.4,63.7,30.05,ESE,120,2.0,8.0,67,0.00,,,0.04,Wunderground PWS Mod,2013-05-18 16:00:00,
2013-05-18 12:05:00,75.4,63.7,30.05,ESE,120,2.0,8.0,67,0.00,,,0.04,Wunderground PWS Mod,2013-05-18 16:05:00,
2013-05-18 12:10:00,75.4,63.7,30.05,ESE,120,2.0,8.0,67,0.00,,,0.04,Wunderground PWS Mod,2013-05-18 16:10:00,
2013-05-18 12:15:00,74.9,64.5,30.05,ESE,110,2.0,6.0,70,0.00,,,0.04,Wunderground PWS Mod,2013-05-18 16:15:00,
2013-05-18 12:20:00,74.9,64.5,30.05,ESE,110,2.0,6.0,70,0.00,,,0.04,Wunderground PWS Mod,2013-05-18 16:20:00,
2013-05-18 12:25:00,74.9,64.5,30.05,ESE,110,2.0,6.0,70,0.00,,,0.04,Wunderground PWS Mod,2013-05-18 16:25:00,
2013-05-18 12:30:00,74.9,64.5,30.05,ESE,110,2.0,6.0,70,0.00,,,0.04,Wunderground PWS Mod,2013-05-18 16:30:00,
2013-05-18 12:35:00,74.9,64.5,30.05,ESE,110,2.0,6.0,70,0.00,,,0.04,Wunderground PWS Mod,2013-05-18 16:35:00,
2013-05-18 12:40:00,74.9,64.5,30.05,ESE,110,2.0,6.0,70,0.00,,,0.04,Wunderground PWS Mod,2013-05-18 16:40:00,
2013-05-18 12:45:00,74.9,64.0,30.04,ESE,110,1.0,4.0,69,0.00,,,0.04,Wunderground PWS Mod,2013-05-18 16:45:00,
2013-05-18 12:50:00,74.9,64.0,30.04,ESE,110,1.0,4.0,69,0.00,,,0.04,Wunderground PWS Mod,2013-05-18 16:50:00,
2013-05-18 12:55:00,74.9,64.0,30.04,ESE,110,1.0,4.0,69,0.00,,,0.04,Wunderground PWS Mod,2013-05-18 16:55:00,
2013-05-18 13:00:00,74.9,64.0,30.04,ESE,110,1.0,4.0,69,0.00,,,0.04,Wunderground PWS Mod,2013-05-18 17:00:00,
2013-05-18 13:05:00,74.9,64.0,30.04,ESE,110,1.0,4.0,69,0.00,,,0.04,Wunderground PWS Mod,2013-05-18 17:05:00,
2013-05-18 13:10:00,74.9,64.0,30.04,ESE,110,1.0,4.0,69,0.00,,,0.04,Wunderground PWS Mod,2013-05-18 17:10:00,
2013-05-18 13:15:00,74.7,64.3,30.03,ESE,110,1.0,4.0,70,0.00,,,0.04,Wunderground PWS Mod,2013-05-18 17:15:00,
2013-05-18 13:20:00,74.7,64.3,30.03,ESE,110,1.0,4.0,70,0.00,,,0.04,Wunderground PWS Mod,2013-05-18 17:20:00,
2013-05-18 13:25:00,74.7,64.3,30.03,ESE,110,1.0,4.0,70,0.00,,,0.04,Wunderground PWS Mod,2013-05-18 17:25:00,
2013-05-18 13:30:00,74.7,64.3,30.03,ESE,110,1.0,4.0,70,0.00,,,0.04,Wunderground PWS Mod,2013-05-18 17:30:00,
2013-05-18 13:35:00,74.7,64.3,30.03,ESE,110,1.0,4.0,70,0.00,,,0.04,Wunderground PWS Mod,2013-05-18 17:35:00,
2013-05-18 13:40:00,74.7,64.3,30.03,ESE,110,1.0,4.0,70,0.00,,,0.04,Wunderground PWS Mod,2013-05-18 17:40:00,
2013-05-18 13:45:00,73.7,65.3,30.03,ESE,120,1.0,5.0,75,0.01,,,0.04,Wunderground PWS Mod,2013-05-18 17:45:00,
2013-05-18 13:50:00,73.7,65.3,30.03,ESE,120,1.0,5.0,75,0.01,,,0.04,Wunderground PWS Mod,2013-05-18 17:50:00,
2013-05-18 13:55:00,73.7,65.3,30.03,ESE,120,1.0,5.0,75,0.01,,,0.04,Wunderground PWS Mod,2013-05-18 17:55:00,
2013-05-18 14:00:00,73.7,65.3,30.03,ESE,120,1.0,5.0,75,0.01,,,0.04,Wunderground PWS Mod,2013-05-18 18:00:00,
2013-05-18 14:05:00,73.7,65.3,30.03,ESE,120,1.0,5.0,75,0.01,,,0.04,Wunderground PWS Mod,2013-05-18 18:05:00,
2013-05-18 14:10:00,73.7,65.3,30.03,ESE,120,1.0,5.0,75,0.01,,,0.04,Wunderground PWS Mod,2013-05-18 18:10:00,
2013-05-18 14:15:00,71.8,66.4,30.02,ESE,120,0.0,3.0,83,0.02,,,0.04,Wunderground PWS Mod,2013-05-18 18:15:00,
2013-05-18 14:20:00,71.8,66.4,30.02,ESE,120,0.0,3.0,83,0.02,,,0.04,Wunderground PWS Mod,2013-05-18 18:20:00,
2013-05-18 14:25:00,71.8,66.4,30.02,ESE,120,0.0,3.0,83,0.02,,,0.04,Wunderground PWS Mod,2013-05-18 18:25:00,
2013-05-18 14:30:00,71.8,66.4,30.02,ESE,120,0.0,3.0,83,0.02,,,0.04,Wunderground PWS Mod,2013-05-18 18:30:00,
2013-05-18 14:35:00,71.8,66.4,30.02,ESE,120,0.0,3.0,83,0.02,,,0.04,Wunderground PWS Mod,2013-05-18 18:35:00,
2013-05-18 14:40:00,71.8,66.4,30.02,ESE,120,0.0,3.0,83,0.02,,,0.04,Wunderground PWS Mod,2013-05-18 18:40:00,
2013-05-18 14:45:00,71.5,66.1,30.01,ESE,120,0.0,1.0,83,0.01,,,0.04,Wunderground PWS Mod,2013-05-18 18:45:00,
2013-05-18 14:50:00,71.5,66.1,30.01,ESE,120,0.0,1.0,83,0.01,,,0.04,Wunderground PWS Mod,2013-05-18 18:50:00,
2013-05-18 14:55:00,71.5,66.1,30.01,ESE,120,0.0,1.0,83,0.01,,,0.04,Wunderground PWS Mod,2013-05-18 18:55:00,
2013-05-18 15:00:00,71.5,66.1,30.01,ESE,120,0.0,1.0,83,0.01,,,0.04,Wunderground PWS Mod,2013-05-18 19:00:00,
2013-05-18 15:05:00,71.5,66.1,30.01,ESE,120,0.0,1.0,83,0.01,,,0.04,Wunderground PWS Mod,2013-05-18 19:05:00,
2013-05-18 15:10:00,71.5,66.1,30.01,ESE,120,0.0,1.0,83,0.01,,,0.04,Wunderground PWS Mod,2013-05-18 19:10:00,
2013-05-18 15:15:00,71.5,67.4,30.00,N/A,-327680,0.0,0.0,87,0.01,,,0.04,Wunderground PWS Mod,2013-05-18 19:15:00,
2013-05-18 15:20:00,71.5,67.4,30.00,N/A,-327680,0.0,0.0,87,0.01,,,0.04,Wunderground PWS Mod,2013-05-18 19:20:00,
2013-05-18 15:25:00,71.5,67.4,30.00,N/A,-327680,0.0,0.0,87,0.01,,,0.04,Wunderground PWS Mod,2013-05-18 19:25:00,
2013-05-18 15:30:00,71.5,67.4,30.00,N/A,-327680,0.0,0.0,87,0.01,,,0.04,Wunderground PWS Mod,2013-05-18 19:30:00,
2013-05-18 15:35:00,71.5,67.4,30.00,N/A,-327680,0.0,0.0,87,0.01,,,0.04,Wunderground PWS Mod,2013-05-18 19:35:00,
2013-05-18 15:40:00,71.5,67.4,30.00,N/A,-327680,0.0,0.0,87,0.01,,,0.04,Wunderground PWS Mod,2013-05-18 19:40:00,
2013-05-18 15:45:00,71.3,67.9,30.00,ESE,120,0.0,1.0,89,0.02,,,0.04,Wunderground PWS Mod,2013-05-18 19:45:00,
2013-05-18 15:50:00,71.3,67.9,30.00,ESE,120,0.0,1.0,89,0.02,,,0.04,Wunderground PWS Mod,2013-05-18 19:50:00,
2013-05-18 15:55:00,71.3,67.9,30.00,ESE,120,0.0,1.0,89,0.02,,,0.04,Wunderground PWS Mod,2013-05-18 19:55:00,
2013-05-18 16:00:00,71.3,67.9,30.00,ESE,120,0.0,1.0,89,0.02,,,0.04,Wunderground PWS Mod,2013-05-18 20:00:00,
2013-05-18 16:05:00,71.3,67.9,30.00,ESE,120,0.0,1.0,89,0.02,,,0.04,Wunderground PWS Mod,2013-05-18 20:05:00,
2013-05-18 16:10:00,71.3,67.9,30.00,ESE,120,0.0,1.0,89,0.02,,,0.04,Wunderground PWS Mod,2013-05-18 20:10:00,
2013-05-18 16:15:00,70.9,67.5,30.00,ESE,120,0.0,1.0,89,0.01,,,0.04,Wunderground PWS Mod,2013-05-18 20:15:00,
2013-05-18 16:20:00,70.9,67.5,30.00,ESE,120,0.0,1.0,89,0.01,,,0.04,Wunderground PWS Mod,2013-05-18 20:20:00,
2013-05-18 16:25:00,70.9,67.5,30.00,ESE,120,0.0,1.0,89,0.01,,,0.04,Wunderground PWS Mod,2013-05-18 20:25:00,
2013-05-18 16:30:00,70.9,67.5,30.00,ESE,120,0.0,1.0,89,0.01,,,0.04,Wunderground PWS Mod,2013-05-18 20:30:00,
2013-05-18 16:35:00,70.9,67.5,30.00,ESE,120,0.0,1.0,89,0.01,,,0.04,Wunderground PWS Mod,2013-05-18 20:35:00,
2013-05-18 16:40:00,70.9,67.5,30.00,ESE,120,0.0,1.0,89,0.01,,,0.04,Wunderground PWS Mod,2013-05-18 20:40:00,
2013-05-18 16:45:00,71.3,67.6,30.00,ESE,120,0.0,2.0,88,0.00,,,0.04,Wunderground PWS Mod,2013-05-18 20:45:00,
2013-05-18 16:55:00,71.3,67.6,30.00,ESE,120,0.0,2.0,88,0.00,,,0.04,Wunderground PWS Mod,2013-05-18 20:55:00,
2013-05-18 17:00:00,71.3,67.6,30.00,ESE,120,0.0,2.0,88,0.00,,,0.04,Wunderground PWS Mod,2013-05-18 21:00:00,
2013-05-18 17:05:00,71.3,67.6,30.00,ESE,120,0.0,2.0,88,0.00,,,0.04,Wunderground PWS Mod,2013-05-18 21:05:00,
2013-05-18 17:10:00,71.3,67.6,30.00,ESE,120,0.0,2.0,88,0.00,,,0.04,Wunderground PWS Mod,2013-05-18 21:10:00,
2013-05-18 17:15:00,70.6,66.9,30.00,ESE,120,0.0,2.0,88,0.00,,,0.04,Wunderground PWS Mod,2013-05-18 21:15:00,
2013-05-18 17:20:00,70.6,66.9,30.00,ESE,120,0.0,2.0,88,0.00,,,0.04,Wunderground PWS Mod,2013-05-18 21:20:00,
2013-05-18 17:25:00,70.6,66.9,30.00,ESE,120,0.0,2.0,88,0.00,,,0.04,Wunderground PWS Mod,2013-05-18 21:25:00,
2013-05-18 17:30:00,70.6,66.9,30.00,ESE,120,0.0,2.0,88,0.00,,,0.04,Wunderground PWS Mod,2013-05-18 21:30:00,
2013-05-18 17:35:00,70.6,66.9,30.00,ESE,120,0.0,2.0,88,0.00,,,0.04,Wunderground PWS Mod,2013-05-18 21:35:00,
2013-05-18 17:40:00,70.6,66.9,30.00,ESE,120,0.0,2.0,88,0.00,,,0.04,Wunderground PWS Mod,2013-05-18 21:40:00,
2013-05-18 17:45:00,70.3,66.6,30.00,NNE,30,0.0,1.0,88,0.00,,,0.04,Wunderground PWS Mod,2013-05-18 21:45:00,
2013-05-18 17:50:00,70.3,66.6,30.00,NNE,30,0.0,1.0,88,0.00,,,0.04,Wunderground PWS Mod,2013-05-18 21:50:00,
2013-05-18 17:55:00,70.3,66.6,30.00,NNE,30,0.0,1.0,88,0.00,,,0.04,Wunderground PWS Mod,2013-05-18 21:55:00,
2013-05-18 18:00:00,70.3,66.6,30.00,NNE,30,0.0,1.0,88,0.00,,,0.04,Wunderground PWS Mod,2013-05-18 22:00:00,
2013-05-18 18:05:00,70.3,66.6,30.00,NNE,30,0.0,1.0,88,0.00,,,0.04,Wunderground PWS Mod,2013-05-18 22:05:00,
2013-05-18 18:10:00,70.3,66.6,30.00,NNE,30,0.0,1.0,88,0.00,,,0.04,Wunderground PWS Mod,2013-05-18 22:10:00,
2013-05-18 18:15:00,70.3,66.9,30.01,NNE,30,0.0,2.0,89,0.00,,,0.04,Wunderground PWS Mod,2013-05-18 22:15:00,
2013-05-18 18:20:00,70.3,66.9,30.01,NNE,30,0.0,2.0,89,0.00,,,0.04,Wunderground PWS Mod,2013-05-18 22:20:00,
2013-05-18 18:25:00,70.3,66.9,30.01,NNE,30,0.0,2.0,89,0.00,,,0.04,Wunderground PWS Mod,2013-05-18 22:25:00,
2013-05-18 18:30:00,70.3,66.9,30.01,NNE,30,0.0,2.0,89,0.00,,,0.04,Wunderground PWS Mod,2013-05-18 22:30:00,
2013-05-18 18:35:00,70.3,66.9,30.01,NNE,30,0.0,2.0,89,0.00,,,0.04,Wunderground PWS Mod,2013-05-18 22:35:00,
2013-05-18 18:40:00,70.3,66.9,30.01,NNE,30,0.0,2.0,89,0.00,,,0.04,Wunderground PWS Mod,2013-05-18 22:40:00,
2013-05-18 18:45:00,69.9,66.8,30.01,East,100,0.0,2.0,90,0.00,,,0.04,Wunderground PWS Mod,2013-05-18 22:45:00,
2013-05-18 18:50:00,69.9,66.8,30.01,East,100,0.0,2.0,90,0.00,,,0.04,Wunderground PWS Mod,2013-05-18 22:50:00,
2013-05-18 18:55:00,69.9,66.8,30.01,East,100,0.0,2.0,90,0.00,,,0.04,Wunderground PWS Mod,2013-05-18 22:55:00,
2013-05-18 19:00:00,69.9,66.8,30.01,East,100,0.0,2.0,90,0.00,,,0.04,Wunderground PWS Mod,2013-05-18 23:00:00,
2013-05-18 19:05:00,69.9,66.8,30.01,East,100,0.0,2.0,90,0.00,,,0.04,Wunderground PWS Mod,2013-05-18 23:05:00,
2013-05-18 19:10:00,69.9,66.8,30.01,East,100,0.0,2.0,90,0.00,,,0.04,Wunderground PWS Mod,2013-05-18 23:10:00,
2013-05-18 19:15:00,69.4,66.3,30.01,East,90,0.0,3.0,90,0.00,,,0.04,Wunderground PWS Mod,2013-05-18 23:15:00,
2013-05-18 19:20:00,69.4,66.3,30.01,East,90,0.0,3.0,90,0.00,,,0.04,Wunderground PWS Mod,2013-05-18 23:20:00,
2013-05-18 19:25:00,69.4,66.3,30.01,East,90,0.0,3.0,90,0.00,,,0.04,Wunderground PWS Mod,2013-05-18 23:25:00,
2013-05-18 19:30:00,69.4,66.3,30.01,East,90,0.0,3.0,90,0.00,,,0.04,Wunderground PWS Mod,2013-05-18 23:30:00,
2013-05-18 19:35:00,69.4,66.3,30.01,East,90,0.0,3.0,90,0.00,,,0.04,Wunderground PWS Mod,2013-05-18 23:35:00,
2013-05-18 19:40:00,69.4,66.3,30.01,East,90,0.0,3.0,90,0.00,,,0.04,Wunderground PWS Mod,2013-05-18 23:40:00,
2013-05-18 19:45:00,68.6,65.5,30.01,East,90,0.0,1.0,90,0.00,,,0.04,Wunderground PWS Mod,2013-05-18 23:45:00,
2013-05-18 19:50:00,68.6,65.5,30.01,East,90,0.0,1.0,90,0.00,,,0.04,Wunderground PWS Mod,2013-05-18 23:50:00,
2013-05-18 19:55:00,68.6,65.5,30.01,East,90,0.0,1.0,90,0.00,,,0.04,Wunderground PWS Mod,2013-05-18 23:55:00,
2013-05-18 20:00:00,68.6,65.5,30.01,East,90,0.0,1.0,90,0.00,,,0.04,Wunderground PWS Mod,2013-05-19 00:00:00,
2013-05-18 20:05:00,68.6,65.5,30.01,East,90,0.0,1.0,90,0.00,,,0.04,Wunderground PWS Mod,2013-05-19 00:05:00,
2013-05-18 20:10:00,68.6,65.5,30.01,East,90,0.0,1.0,90,0.00,,,0.04,Wunderground PWS Mod,2013-05-19 00:10:00,
2013-05-18 20:15:00,68.6,64.6,30.02,ENE,70,1.0,5.0,87,0.00,,,0.04,Wunderground PWS Mod,2013-05-19 00:15:00,
2013-05-18 20:20:00,68.6,64.6,30.02,ENE,70,1.0,5.0,87,0.00,,,0.04,Wunderground PWS Mod,2013-05-19 00:20:00,
2013-05-18 20:25:00,68.6,64.6,30.02,ENE,70,1.0,5.0,87,0.00,,,0.04,Wunderground PWS Mod,2013-05-19 00:25:00,
2013-05-18 20:30:00,68.6,64.6,30.02,ENE,70,1.0,5.0,87,0.00,,,0.04,Wunderground PWS Mod,2013-05-19 00:30:00,
2013-05-18 20:35:00,68.6,64.6,30.02,ENE,70,1.0,5.0,87,0.00,,,0.04,Wunderground PWS Mod,2013-05-19 00:35:00,
2013-05-18 20:40:00,68.6,64.6,30.02,ENE,70,1.0,5.0,87,0.00,,,0.04,Wunderground PWS Mod,2013-05-19 00:40:00,
2013-05-18 20:45:00,68.3,65.3,30.02,ENE,70,1.0,5.0,90,0.00,,,0.04,Wunderground PWS Mod,2013-05-19 00:45:00,
2013-05-18 20:50:00,68.3,65.3,30.02,ENE,70,1.0,5.0,90,0.00,,,0.04,Wunderground PWS Mod,2013-05-19 00:50:00,
2013-05-18 20:55:00,68.3,65.3,30.02,ENE,70,1.0,5.0,90,0.00,,,0.04,Wunderground PWS Mod,2013-05-19 00:55:00,
2013-05-18 21:00:00,68.3,65.3,30.02,ENE,70,1.0,5.0,90,0.00,,,0.04,Wunderground PWS Mod,2013-05-19 01:00:00,
2013-05-18 21:05:00,68.3,65.3,30.02,ENE,70,1.0,5.0,90,0.00,,,0.04,Wunderground PWS Mod,2013-05-19 01:05:00,
2013-05-18 21:10:00,68.3,65.3,30.02,ENE,70,1.0,5.0,90,0.00,,,0.04,Wunderground PWS Mod,2013-05-19 01:10:00,
2013-05-18 21:15:00,67.4,65.0,30.02,ENE,70,1.0,4.0,92,0.00,,,0.04,Wunderground PWS Mod,2013-05-19 01:15:00,
2013-05-18 21:20:00,67.4,65.0,30.02,ENE,70,1.0,4.0,92,0.00,,,0.04,Wunderground PWS Mod,2013-05-19 01:20:00,
2013-05-18 21:25:00,67.4,65.0,30.02,ENE,70,1.0,4.0,92,0.00,,,0.04,Wunderground PWS Mod,2013-05-19 01:25:00,
2013-05-18 21:30:00,67.4,65.0,30.02,ENE,70,1.0,4.0,92,0.00,,,0.04,Wunderground PWS Mod,2013-05-19 01:30:00,
2013-05-18 21:35:00,67.4,65.0,30.02,ENE,70,1.0,4.0,92,0.00,,,0.04,Wunderground PWS Mod,2013-05-19 01:35:00,
2013-05-18 21:40:00,67.4,65.0,30.02,ENE,70,1.0,4.0,92,0.00,,,0.04,Wunderground PWS Mod,2013-05-19 01:40:00,
2013-05-18 21:45:00,67.1,65.0,30.02,ENE,70,0.0,4.0,93,0.00,,,0.04,Wunderground PWS Mod,2013-05-19 01:45:00,
2013-05-18 21:50:00,67.1,65.0,30.02,ENE,70,0.0,4.0,93,0.00,,,0.04,Wunderground PWS Mod,2013-05-19 01:50:00,
2013-05-18 21:55:00,67.1,65.0,30.02,ENE,70,0.0,4.0,93,0.00,,,0.04,Wunderground PWS Mod,2013-05-19 01:55:00,
2013-05-18 22:00:00,67.1,65.0,30.02,ENE,70,0.0,4.0,93,0.00,,,0.04,Wunderground PWS Mod,2013-05-19 02:00:00,
2013-05-18 22:05:00,67.1,65.0,30.02,ENE,70,0.0,4.0,93,0.00,,,0.04,Wunderground PWS Mod,2013-05-19 02:05:00,
2013-05-18 22:10:00,67.1,65.0,30.02,ENE,70,0.0,4.0,93,0.00,,,0.04,Wunderground PWS Mod,2013-05-19 02:10:00,
2013-05-18 22:15:00,66.8,65.3,30.02,ENE,70,0.0,3.0,95,0.00,,,0.04,Wunderground PWS Mod,2013-05-19 02:15:00,
2013-05-18 22:20:00,66.8,65.3,30.02,ENE,70,0.0,3.0,95,0.00,,,0.04,Wunderground PWS Mod,2013-05-19 02:20:00,
2013-05-18 22:25:00,66.8,65.3,30.02,ENE,70,0.0,3.0,95,0.00,,,0.04,Wunderground PWS Mod,2013-05-19 02:25:00,
2013-05-18 22:30:00,66.8,65.3,30.02,ENE,70,0.0,3.0,95,0.00,,,0.04,Wunderground PWS Mod,2013-05-19 02:30:00,
2013-05-18 22:35:00,66.8,65.3,30.02,ENE,70,0.0,3.0,95,0.00,,,0.04,Wunderground PWS Mod,2013-05-19 02:35:00,
2013-05-18 22:40:00,66.8,65.3,30.02,ENE,70,0.0,3.0,95,0.00,,,0.04,Wunderground PWS Mod,2013-05-19 02:40:00,
2013-05-18 22:45:00,66.4,65.2,30.02,ENE,60,1.0,4.0,96,0.00,,,0.04,Wunderground PWS Mod,2013-05-19 02:45:00,
2013-05-18 22:50:00,66.4,65.2,30.02,ENE,60,1.0,4.0,96,0.00,,,0.04,Wunderground PWS Mod,2013-05-19 02:50:00,
2013-05-18 22:55:00,66.4,65.2,30.02,ENE,60,1.0,4.0,96,0.00,,,0.04,Wunderground PWS Mod,2013-05-19 02:55:00,
2013-05-18 23:00:00,66.4,65.2,30.02,ENE,60,1.0,4.0,96,0.00,,,0.04,Wunderground PWS Mod,2013-05-19 03:00:00,
2013-05-18 23:05:00,66.4,65.2,30.02,ENE,60,1.0,4.0,96,0.00,,,0.04,Wunderground PWS Mod,2013-05-19 03:05:00,
2013-05-18 23:10:00,66.4,65.2,30.02,ENE,60,1.0,4.0,96,0.00,,,0.04,Wunderground PWS Mod,2013-05-19 03:10:00,
2013-05-18 23:15:00,66.4,65.2,30.02,ENE,60,1.0,5.0,96,0.00,,,0.04,Wunderground PWS Mod,2013-05-19 03:15:00,
2013-05-18 23:20:00,66.4,65.2,30.02,ENE,60,1.0,5.0,96,0.00,,,0.04,Wunderground PWS Mod,2013-05-19 03:20:00,
2013-05-18 23:25:00,66.4,65.2,30.02,ENE,60,1.0,5.0,96,0.00,,,0.04,Wunderground PWS Mod,2013-05-19 03:25:00,
2013-05-18 23:30:00,66.4,65.2,30.02,ENE,60,1.0,5.0,96,0.00,,,0.04,Wunderground PWS Mod,2013-05-19 03:30:00,
2013-05-18 23:35:00,66.4,65.2,30.02,ENE,60,1.0,5.0,96,0.00,,,0.04,Wunderground PWS Mod,2013-05-19 03:35:00,
2013-05-18 23:40:00,66.4,65.2,30.02,ENE,60,1.0,5.0,96,0.00,,,0.04,Wunderground PWS Mod,2013-05-19 03:40:00,
2013-05-18 23:45:00,66.4,65.5,30.02,ENE,70,1.0,5.0,97,0.00,,,0.04,Wunderground PWS Mod,2013-05-19 03:45:00,
2013-05-18 23:50:00,66.4,65.5,30.02,ENE,70,1.0,5.0,97,0.00,,,0.04,Wunderground PWS Mod,2013-05-19 03:50:00,
2013-05-18 23:55:00,66.4,65.5,30.02,ENE,70,1.0,5.0,97,0.00,,,0.04,Wunderground PWS Mod,2013-05-19 03:55:00,